Location: Campo Claro
(10.4907°N, 66.8285°W)
Time: 07:08:40
(UTC+00:00)

Cosmos 1553 Rocket - Pass Details

Date: 12 July 2022
Orbit: 941 x 1008 km, 82.9° (Epoch: 12 August)

Event Time Altitude Azimuth Distance (km) Brightness Sun altitude
Rises 00:10:00 0° 226° (SW) 3,705 7.3 -17.8°
Reaches altitude 10° 00:14:20 10° 254° (WSW) 2,767 7.0 -18.8°
Maximum altitude 00:16:48 12° 277° (W) 2,596 7.2 -19.3°
Drops below altitude 10° 00:19:18 10° 301° (WNW) 2,776 7.6 -19.9°
Sets 00:23:42 0° 329° (NNW) 3,729 8.0 -20.8°
